Weather History for St. Johnsbury, VT

Change the Weather History Date:

Wednesday, September 4, 2013

  Actual Average Record
Temperature  
Mean Temperature 66 °F 64 °F  
Max Temperature 74 °F 75 °F 91 °F (1999)
Min Temperature 58 °F 54 °F 34 °F (1946)
Degree Days  
Heating Degree Days 0 3  
Month to date heating degree days 0 11  
Since 1 July heating degree days 60 61  
Cooling Degree Days 1 2  
Month to date cooling degree days 20 9  
Year to date cooling degree days 387 407  
Growing Degree Days 14 (Base 50)    
Moisture  
Dew Point 55 °F    
Average Humidity 72    
Maximum Humidity 100    
Minimum Humidity 44    
Precipitation  
Precipitation 0.12 in 0.11 in 1.10 in (1907)
Month to date precipitation 0.43 0.41  
Year to date precipitation 25.40 26.17  
Sea Level Pressure  
Sea Level Pressure 29.83 in    
Wind  
Wind Speed - (North)    
Max Wind Speed -    
Max Gust Speed -    
T = Trace of Precipitation, MM = Missing Value Source: NWS Daily Summary

Daily Weather History Graph

Daily Weather History Graph

Search for Another Location

Airport:

Trip Planner

Search our weather history database for the weather conditions in past years. The results will help you decide how hot, cold, wet, or windy it might be!

Date:

Astronomy

Sep. 04, 2013 Rise Set
Actual Time 6:14 AM EDT 7:18 PM EDT
Civil Twilight 5:44 AM EDT 7:48 PM EDT
Nautical Twilight 5:09 AM EDT 8:23 PM EDT
Astronomical Twilight 4:31 AM EDT 9:01 PM EDT
Moon 5:23 AM EDT (9/4) 6:35 PM EDT (9/4)
Length of Visible Light 14h 03m
Length of Day
13h 04m
Waning Crescent, 1% of the Moon is Illuminated
Sep 4
Waning Crescent
Sep 5
New
Sep 12
First Quarter
Sep 19
Full
Sep 26
Last Quarter

Hourly Weather History & Observations

Time (EDT) Temp. Dew Point Humidity Pressure Visibility Wind Dir Wind Speed Gust Speed Precip Events Conditions
12:54 AM 62.1 °F 59.0 °F 90% 29.78 in - North - - N/A   Unknown
1:54 AM 62.1 °F 57.9 °F 86% 29.78 in - North - - N/A   Unknown
2:54 AM 62.1 °F 57.9 °F 86% 29.78 in - North - - N/A   Unknown
3:54 AM 62.1 °F 55.9 °F 80% 29.79 in - North - - N/A   Unknown
4:54 AM 61.0 °F 55.9 °F 83% 29.80 in - North - - N/A   Unknown
5:54 AM 59.0 °F 57.0 °F 93% 29.82 in - North - - N/A   Unknown
6:54 AM 57.9 °F 57.0 °F 97% 29.82 in - North - - N/A   Unknown
7:54 AM 59.0 °F 55.9 °F 90% 29.83 in - North - - N/A   Unknown
8:54 AM 64.0 °F 55.0 °F 73% 29.83 in - North - - N/A   Unknown
9:54 AM 68.0 °F 52.0 °F 56% 29.83 in - North - - N/A   Unknown
10:54 AM 69.1 °F 50.0 °F 51% 29.82 in - North - - N/A   Unknown
11:54 AM 71.1 °F 48.0 °F 44% 29.83 in - North - - N/A   Unknown
12:54 PM 68.0 °F 48.0 °F 49% 29.84 in - North - - N/A   Unknown
1:54 PM 70.0 °F 53.1 °F 55% 29.83 in - North - - N/A   Unknown
2:54 PM 72.0 °F 53.1 °F 51% 29.83 in - North - - N/A   Unknown
3:54 PM 71.1 °F 54.0 °F 55% 29.82 in - North - - N/A   Unknown
4:54 PM 70.0 °F 54.0 °F 57% 29.83 in - North - - N/A   Unknown
5:54 PM 66.0 °F 55.9 °F 70% 29.85 in - North - - N/A   Unknown
6:54 PM 62.1 °F 57.9 °F 86% 29.87 in - North - - N/A   Unknown
7:54 PM 62.1 °F 57.9 °F 86% 29.87 in - North - - N/A   Unknown
8:54 PM 62.1 °F 57.9 °F 86% 29.89 in - North - - N/A   Unknown
9:54 PM 60.1 °F 59.0 °F 96% 29.88 in - North - - 0.07 in   Unknown
10:54 PM 60.1 °F 59.0 °F 96% 29.89 in - North - - 0.04 in   Unknown
11:54 PM 59.0 °F 57.9 °F 96% 29.87 in - North - - N/A   Unknown